| time (UTC) | temp C | wind direction | speed KPH | gust KPH | rain 1hr cm | rain 24hr cm | rain mn cm | humidity % | barometer mb |
| 20260504201532 | 17 | 211 | 8.0 | 20.9 | 0.00 | 0.00 | 0.00 | 64 | 1010.5 |
| 20260504200032 | 17 | 221 | 6.4 | 19.3 | 0.00 | 0.00 | 0.00 | 62 | 1010.5 |
| 20260504194533 | 17 | 234 | 8.0 | 17.7 | 0.00 | 0.00 | 0.00 | 63 | 1010.6 |
| 20260504193028 | 17 | 198 | 6.4 | 29.0 | 0.00 | 0.00 | 0.00 | 64 | 1010.8 |
| 20260504191527 | 17 | 158 | 8.0 | 22.5 | 0.00 | 0.00 | 0.00 | 63 | 1010.9 |
| 20260504190027 | 17 | 171 | 6.4 | 19.3 | 0.00 | 0.00 | 0.00 | 62 | 1011.1 |
| 20260504184525 | 18 | 161 | 9.7 | 25.7 | 0.00 | 0.00 | 0.00 | 59 | 1011.2 |
| 20260504183023 | 17 | 115 | 3.2 | 22.5 | 0.00 | 0.00 | 0.00 | 61 | 1011.3 |
| 20260504181522 | 18 | 169 | 4.8 | 19.3 | 0.00 | 0.00 | 0.00 | 57 | 1011.3 |
| 20260504180021 | 18 | 168 | 6.4 | 19.3 | 0.00 | 0.00 | 0.00 | 59 | 1011.6 |
| 20260504174520 | 18 | 147 | 6.4 | 16.1 | 0.00 | 0.00 | 0.00 | 60 | 1011.5 |
| 20260504173021 | 18 | 143 | 6.4 | 12.9 | 0.00 | 0.00 | 0.00 | 58 | 1011.7 |
| 20260504171523 | 18 | 192 | 4.8 | 12.9 | 0.00 | 0.00 | 0.00 | 56 | 1011.8 |
| 20260504081558 | 9 | 304 | 0.0 | 3.2 | 0.00 | 0.00 | 0.00 | 63 | 1013.5 |
| 20260504044536 | 10 | 311 | 0.0 | 0.0 | 0.00 | 0.00 | 0.00 | 62 | 1012.6 |
| 20260504043045 | 9 | 311 | 0.0 | 0.0 | 0.00 | 0.00 | 0.00 | 62 | 1012.5 |
| 20260504041538 | 9 | 311 | 0.0 | 1.6 | 0.00 | 0.00 | 0.00 | 62 | 1012.4 |
| 20260504040033 | 9 | 311 | 0.0 | 1.6 | 0.00 | 0.00 | 0.00 | 62 | 1012.4 |
| 20260504034534 | 10 | 311 | 0.0 | 1.6 | 0.00 | 0.00 | 0.00 | 61 | 1012.4 |
| 20260504033036 | 10 | 311 | 0.0 | 3.2 | 0.00 | 0.00 | 0.00 | 62 | 1012.2 |
| 20260504031530 | 9 | 311 | 0.0 | 1.6 | 0.00 | 0.00 | 0.00 | 62 | 1012.2 |
| 20260504030032 | 9 | 311 | 0.0 | 1.6 | 0.00 | 0.00 | 0.00 | 62 | 1012.3 |
| 20260504024529 | 9 | 311 | 0.0 | 1.6 | 0.00 | 0.00 | 0.00 | 60 | 1012.2 |
| 20260504023029 | 9 | 311 | 0.0 | 0.0 | 0.00 | 0.00 | 0.00 | 55 | 1012.2 |
| 20260504021527 | 9 | 311 | 0.0 | 0.0 | 0.00 | 0.00 | 0.00 | 52 | 1012.2 |
| 20260504020027 | 10 | 311 | 0.0 | 0.0 | 0.00 | 0.00 | 0.00 | 50 | 1012.1 |
| 20260504014536 | 10 | 311 | 0.0 | 0.0 | 0.00 | 0.00 | 0.00 | 48 | 1012.1 |
| 20260504013023 | 11 | 311 | 0.0 | 1.6 | 0.00 | 0.00 | 0.00 | 48 | 1012.0 |
| 20260504011523 | 11 | 311 | 0.0 | 0.0 | 0.00 | 0.00 | 0.00 | 44 | 1011.7 |
| 20260504010020 | 12 | 311 | 0.0 | 0.0 | 0.00 | 0.00 | 0.00 | 40 | 1011.5 |
| 20260504004521 | 13 | 311 | 0.0 | 0.0 | 0.00 | 0.00 | 0.00 | 37 | 1011.4 |
| 20260504003019 | 13 | 311 | 0.0 | 3.2 | 0.00 | 0.00 | 0.00 | 36 | 1011.1 |
| 20260504001517 | 13 | 311 | 1.6 | 9.7 | 0.00 | 0.00 | 0.00 | 34 | 1010.9 |
| 20260504000016 | 13 | 311 | 1.6 | 8.0 | 0.00 | 0.00 | 0.00 | 33 | 1010.8 |
| 20260503234615 | 14 | 290 | 1.6 | 8.0 | 0.00 | 0.00 | 0.00 | 33 | 1010.6 |
| 20260503233015 | 14 | 284 | 3.2 | 11.3 | 0.00 | 0.00 | 0.00 | 31 | 1010.4 |
| 20260503231517 | 15 | 252 | 6.4 | 12.9 | 0.00 | 0.00 | 0.00 | 30 | 1010.3 |
| 20260503230014 | 15 | 300 | 4.8 | 19.3 | 0.00 | 0.00 | 0.00 | 30 | 1010.2 |
| 20260503224516 | 15 | 245 | 6.4 | 17.7 | 0.00 | 0.00 | 0.00 | 30 | 1010.2 |
| 20260503223014 | 15 | 254 | 8.0 | 17.7 | 0.00 | 0.00 | 0.00 | 29 | 1010.2 |
| 20260503221513 | 15 | 261 | 9.7 | 19.3 | 0.00 | 0.00 | 0.00 | 29 | 1010.1 |
| 20260503220011 | 15 | 250 | 4.8 | 17.7 | 0.00 | 0.00 | 0.00 | 30 | 1010.0 |
| 20260503214513 | 15 | 298 | 8.0 | 22.5 | 0.00 | 0.00 | 0.00 | 30 | 1010.1 |
| 20260503213008 | 15 | 280 | 6.4 | 17.7 | 0.00 | 0.00 | 0.00 | 31 | 1010.0 |
| 20260503211507 | 15 | 277 | 8.0 | 16.1 | 0.00 | 0.00 | 0.00 | 31 | 1009.9 |
| 20260503210006 | 15 | 290 | 8.0 | 24.1 | 0.00 | 0.00 | 0.00 | 32 | 1009.8 |
| 20260503204515 | 15 | 311 | 11.3 | 24.1 | 0.00 | 0.00 | 0.00 | 31 | 1010.0 |
| 20260503203006 | 15 | 253 | 12.9 | 22.5 | 0.00 | 0.00 | 0.00 | 32 | 1009.9 |